Location: Innerarity Island Observatory
(30.3139°N, 87.4867°W)
Time: 19:05:20
(UTC-05:00)

Amateur Radio Satellites - All Passes

Search period start: 27 May 2016 18:35
Search period end: 28 May 2016 18:35
Location: Innerarity Island Observatory, 30.3139°N, 87.4867°W

Satellite Date Start Highest point End Downlink Frequencies (MHz)
Time Altitude Azimuth
GOMX 1 27 May 18:39:39 18:45:02 60° 75° (ENE) 18:50:23 467.674
AUBIESAT-1 27 May 18:50:53 18:52:08 11° 66° (ENE) 18:53:21 437.475
RS-15 27 May 18:50:59 19:01:19 40° 309° (NW) 19:12:15 29.354- 29.394
M-CUBED/EXP-1 PRIME 27 May 18:55:55 18:58:42 17° 67° (ENE) 19:01:22 437.505
HO-68 27 May 18:56:10 19:01:10 21° 63° (ENE) 19:06:09 435.675
STRAND 1 27 May 19:03:03 19:06:33 18° 95° (E) 19:10:03 437.568
LilacSat-2 27 May 19:10:59 19:14:05 24° 263° (W) 19:17:11 437.200
NOAA 15 27 May 19:20:17 19:23:55 19° 265° (W) 19:27:34 137.62
PCSat 27 May 19:21:52 19:27:13 57° 63° (ENE) 19:32:30 145.827
NOAA 18 27 May 19:22:47 19:26:56 22° 263° (W) 19:31:05 137.9125
O/OREOS (USA 219) 27 May 19:23:18 19:27:18 31° 67° (ENE) 19:31:16 437.305
CUBESAT XI-V 27 May 19:23:35 19:26:25 16° 291° (WNW) 19:29:14 437.345
Cubesat XI-IV 27 May 19:24:14 19:28:36 26° 263° (W) 19:32:59 437.490
DOVE 4 27 May 19:28:46 19:34:04 90° 239° (WSW) 19:39:13 437.250
ISS 27 May 19:36:07 19:36:53 11° 125° (SE) 19:37:40 145.825
BRITE-PL 27 May 19:56:55 19:58:48 12° 269° (W) 20:00:43 437.365/2234.400
CANX-2 27 May 19:58:13 20:02:18 53° 76° (ENE) 20:06:24 2200.000
CINEMA 3 27 May 19:59:56 20:04:39 56° 76° (ENE) 20:09:11 145.822/145.860
SEEDS 27 May 20:01:13 20:04:58 34° 74° (ENE) 20:08:45 437.485
GOMX 1 27 May 20:20:41 20:23:18 14° 267° (W) 20:25:57 467.674
AUBIESAT-1 27 May 20:22:12 20:26:18 45° 255° (WSW) 20:30:08 437.475
CUTE 1.7 + AOD 2 27 May 20:25:21 20:29:32 78° 258° (WSW) 20:33:45 437.475
BEESAT 2 27 May 20:27:56 20:30:19 15° 54° (NE) 20:32:41 435.950
M-CUBED/EXP-1 PRIME 27 May 20:29:12 20:33:02 30° 256° (WSW) 20:36:38 437.505
Oscar 11 27 May 20:31:11 20:33:49 16° 70° (ENE) 20:36:27 145.826/435.025
STRAND 1 27 May 20:41:01 20:45:46 39° 288° (WNW) 20:50:32 437.568
HO-68 27 May 20:41:14 20:48:15 61° 257° (WSW) 20:55:19 435.675
ZACube-1 27 May 20:44:59 20:48:08 20° 72° (ENE) 20:51:15 437.345
COMPASS 1 27 May 20:46:48 20:50:55 87° 255° (WSW) 20:55:05 437.405
AAUSAT CUBESAT 2 27 May 20:49:17 20:53:23 77° 78° (ENE) 20:57:31 437.432
CUBEBUG 2 27 May 20:49:26 20:53:49 58° 76° (ENE) 20:58:03 437.445
AIST 1 27 May 20:52:22 20:56:25 38° 92° (E) 21:00:30
PHONESAT 2.4 27 May 20:54:42 20:57:41 41° 146° (SE) 21:00:40 2401.200-2431.200
PRISM 27 May 20:58:51 21:02:57 56° 101° (E) 21:07:01 437.425
Cosmos 2499 27 May 21:01:14 21:02:15 10° 79° (E) 21:03:17 435.465 / 435.565
BEESAT 3 27 May 21:01:18 21:05:15 72° 63° (ENE) 21:09:09 437.485
GONETS M04 27 May 21:02:59 21:10:21 31° 86° (E) 21:17:40
O/OREOS (USA 219) 27 May 21:03:35 21:06:22 16° 260° (W) 21:09:08 437.305
PCSat 27 May 21:07:24 21:10:02 14° 256° (WSW) 21:12:40 145.827
ISS 27 May 21:09:52 21:12:59 43° 317° (NW) 21:16:07 145.825
RS-15 27 May 21:16:30 21:18:41 11° 339° (NNW) 21:20:53 29.354- 29.394
UWE-3 27 May 21:17:50 21:22:13 88° 73° (ENE) 21:26:28 435.000/436.395/437.385
DELFI C3 27 May 21:19:29 21:22:44 25° 73° (ENE) 21:26:02 145.870
FUNcube-1 27 May 21:21:53 21:26:03 56° 77° (ENE) 21:30:10 145.935
SEEDS 27 May 21:38:40 21:40:43 13° 266° (W) 21:42:47 437.485
CINEMA 3 27 May 21:40:55 21:41:55 11° 266° (W) 21:42:55 145.822/145.860
UNISAT 6 27 May 22:02:31 22:04:00 12° 94° (E) 22:05:30 437.425
DANDE 27 May 22:02:49 22:06:20 13° 64° (ENE) 22:09:41 436.750
BEESAT 2 27 May 22:04:38 22:08:13 33° 248° (WSW) 22:11:47 435.950
Oscar 11 27 May 22:05:50 22:09:38 31° 262° (W) 22:13:29 145.826/435.025
CUSAT 1 27 May 22:06:26 22:12:21 25° 70° (ENE) 22:17:25 437.405
TIGRISAT 27 May 22:09:25 22:11:33 13° 95° (E) 22:13:42 435.000
ZACube-1 27 May 22:20:49 22:24:15 23° 263° (W) 22:27:39 437.345
HUMSAT D 27 May 22:26:52 22:30:57 82° 76° (ENE) 22:35:01 437.325/437.525
PHONESAT 2.4 27 May 22:31:44 22:34:29 27° 339° (NNW) 22:37:13 2401.200-2431.200
AIST 1 27 May 22:32:13 22:34:08 13° 285° (WNW) 22:36:03
AIST 2 27 May 22:37:37 22:41:02 24° 57° (ENE) 22:44:24 435.215
ANTELSAT 27 May 22:41:27 22:45:27 36° 99° (E) 22:49:31 437.575/2403.000
Cosmos 2499 27 May 22:46:54 22:54:02 88° 278° (W) 23:01:40 435.465 / 435.565
DELFI C3 27 May 22:55:04 22:57:33 16° 265° (W) 23:00:03 145.870
GONETS M04 27 May 22:58:26 23:06:45 46° 281° (W) 23:15:04
SO-50 27 May 23:04:09 23:07:10 16° 108° (ESE) 23:10:10 436.795
AISAT 27 May 23:07:24 23:11:08 27° 71° (ENE) 23:14:52 437.250
UKube-1 27 May 23:14:56 23:18:04 20° 70° (ENE) 23:21:14 .
POPSAT HIP 1 27 May 23:20:10 23:22:34 15° 95° (E) 23:24:59 437.405
QB50P1 27 May 23:20:28 23:22:58 15° 95° (E) 23:25:28 145.935-145.965
QB50P2 27 May 23:22:32 23:25:23 18° 96° (E) 23:28:13 145.880/145.840
POLYITAN 1 27 May 23:24:57 23:27:50 18° 96° (E) 23:30:43 437.675
50 SAT 27 May 23:29:12 23:32:42 49° 76° (ENE) 23:36:14 437.505
UNISAT 6 27 May 23:36:45 23:40:50 43° 285° (WNW) 23:44:59 437.425
NANOSAT C BR1 27 May 23:37:58 23:41:24 24° 97° (E) 23:44:49 145.865
RS-15 27 May 23:38:14 23:40:11 10° 20° (NNE) 23:42:07 29.354- 29.394
DANDE 27 May 23:42:06 23:50:31 80° 83° (E) 23:57:40 436.750
TIGRISAT 27 May 23:44:20 23:48:18 37° 286° (WNW) 23:52:18 435.000
ESTCUBE 1 27 May 23:45:37 23:50:06 71° 258° (WSW) 23:54:37 437.505/2401.250
CUSAT 1 27 May 23:47:50 23:54:45 45° 271° (W) 00:00:22 437.405
CUBEBUG 1 27 May 23:59:13 00:03:38 73° 259° (W) 00:08:04 437.445
DX 1 28 May 00:00:38 00:05:01 85° 259° (W) 00:09:25 434.975-435.025
VELOX 1 28 May 00:06:49 00:11:13 60° 259° (W) 00:15:37 145.980
PHONESAT 2.4 28 May 00:10:18 00:11:53 13° 356° (N) 00:13:27 2401.200-2431.200
DUCHIFAT 1 28 May 00:15:49 00:19:59 74° 102° (ESE) 00:24:08 145.980
AIST 2 28 May 00:16:10 00:19:20 21° 250° (WSW) 00:22:30 435.215
ANTELSAT 28 May 00:19:31 00:21:50 14° 291° (WNW) 00:24:09 437.575/2403.000
SPROUT 28 May 00:25:13 00:29:31 81° 77° (ENE) 00:33:49 437.525
BUGSAT 1 28 May 00:33:10 00:37:04 48° 100° (E) 00:40:56 437.445
JAS-2 28 May 00:36:21 00:41:45 23° 92° (E) 00:46:42 435.910
SO-50 28 May 00:42:36 00:47:15 44° 301° (WNW) 00:51:56 436.795
AISAT 28 May 00:44:11 00:47:30 20° 264° (W) 00:50:51 437.250
Cosmos 2499 28 May 00:47:08 00:48:16 10° 293° (WNW) 00:49:24 435.465 / 435.565
TISAT 1 28 May 00:48:52 00:52:43 36° 74° (ENE) 00:56:36 437.305
UKube-1 28 May 00:50:17 00:53:54 26° 262° (W) 00:57:32 .
POPSAT HIP 1 28 May 00:54:40 00:58:22 31° 287° (WNW) 01:02:03 437.405
QB50P1 28 May 00:55:04 00:58:44 30° 287° (WNW) 01:02:24 145.935-145.965
QB50P2 28 May 00:57:36 01:01:07 27° 288° (WNW) 01:04:39 145.880/145.840
POLYITAN 1 28 May 01:00:05 01:03:34 26° 288° (WNW) 01:07:04 437.675
NANOSAT C BR1 28 May 01:13:57 01:16:56 19° 289° (WNW) 01:19:54 145.865
Oscar 19 28 May 01:14:31 01:17:59 18° 95° (E) 01:21:27 437.125/150
DANDE 28 May 01:27:33 01:32:06 16° 279° (W) 01:36:23 436.750
SWISSCUBE 28 May 01:38:54 01:42:49 26° 71° (ENE) 01:46:45 437.505
Gurwin Techsat 1B 28 May 01:40:37 01:42:53 13° 93° (E) 01:45:08 435.225
ITUPSAT 1 28 May 01:45:10 01:49:08 27° 71° (ENE) 01:53:08 437.325
RS-15 28 May 01:46:37 01:57:51 38° 51° (NE) 02:08:54 29.354- 29.394
PHONESAT 2.4 28 May 01:47:16 01:49:26 17° 13° (NNE) 01:51:35 2401.200-2431.200
BEESAT 28 May 02:07:49 02:12:24 50° 74° (ENE) 02:17:00 436.000
JAS-2 28 May 02:20:07 02:27:03 49° 289° (WNW) 02:33:14 435.910
TISAT 1 28 May 02:26:24 02:28:26 13° 265° (W) 02:30:28 437.305
Oscar 19 28 May 02:52:37 02:57:22 39° 288° (WNW) 03:02:05 437.125/150
KKS-1 28 May 02:59:13 03:02:20 19° 70° (ENE) 03:05:26 437.445
SWISSCUBE 28 May 03:16:44 03:20:30 23° 263° (W) 03:24:17 437.505
MOZHAYETS 4 28 May 03:16:54 03:20:19 21° 71° (ENE) 03:23:45
Gurwin Techsat 1B 28 May 03:17:52 03:23:05 58° 286° (WNW) 03:28:16 435.225
ITUPSAT 1 28 May 03:23:09 03:26:52 23° 263° (W) 03:30:36 437.325
PHONESAT 2.4 28 May 03:23:26 03:26:32 68° 29° (NNE) 03:29:37 2401.200-2431.200
YUBILEINY 28 May 03:24:56 03:33:34 59° 82° (E) 03:42:12 435.215
STARS 28 May 03:33:31 03:36:58 23° 71° (ENE) 03:40:23 437.465
ITAMSAT 1 28 May 03:34:32 03:39:46 75° 103° (ESE) 03:44:58 435.822/435.867
AO-7 28 May 03:41:26 03:48:45 33° 99° (E) 03:56:02 29.400- 29.500
ISS 28 May 03:43:02 03:44:42 13° 35° (NE) 03:46:20 145.825
BEESAT 28 May 03:48:41 03:50:23 12° 266° (W) 03:52:04 436.000
RS-15 28 May 03:58:48 04:10:44 59° 250° (WSW) 04:22:30 29.354- 29.394
Cosmos 2504 28 May 04:11:27 04:18:59 33° 77° (ENE) 04:26:42 435.465 / 435.565
Cosmos 2491 28 May 04:12:07 04:20:56 78° 93° (E) 04:29:46 435.465 / 435.565
HORYU 2 28 May 04:24:25 04:25:04 10° 94° (E) 04:25:42 437.375
AO-85 28 May 04:30:03 04:33:13 16° 107° (ESE) 04:36:23 145.980
KKS-1 28 May 04:34:44 04:38:38 29° 262° (W) 04:42:33 437.445
CUBESAT XI-V 28 May 04:43:23 04:46:45 20° 70° (ENE) 04:50:09 437.345
MOZHAYETS 4 28 May 04:53:29 04:57:17 26° 263° (W) 05:01:07
PHONESAT 2.4 28 May 05:01:28 05:02:58 13° 220° (SW) 05:04:28 2401.200-2431.200
STARS 28 May 05:09:37 05:13:09 24° 263° (W) 05:16:42 437.465
ITAMSAT 1 28 May 05:17:57 05:18:31 10° 296° (WNW) 05:19:05 435.822/435.867
ISS 28 May 05:18:11 05:21:19 47° 229° (SW) 05:24:27 145.825
YUBILEINY 28 May 05:23:15 05:29:37 23° 276° (W) 05:36:01 435.215
JUGNU 28 May 05:23:59 05:28:19 21° 167° (SSE) 05:32:40 437.505
AO-7 28 May 05:33:42 05:41:29 45° 293° (WNW) 05:49:18 29.400- 29.500
HORYU 2 28 May 05:57:30 06:01:48 50° 286° (WNW) 06:06:05 437.375
NOAA 15 28 May 06:00:36 06:04:52 24° 97° (E) 06:09:06 137.62
Cosmos 2504 28 May 06:04:20 06:12:19 45° 271° (W) 06:20:35 435.465 / 435.565
Cubesat XI-IV 28 May 06:07:36 06:11:20 19° 95° (E) 06:15:04 437.490
AO-85 28 May 06:07:56 06:13:16 56° 299° (WNW) 06:18:35 145.980
NOAA 18 28 May 06:09:26 06:13:53 25° 97° (E) 06:18:20 137.9125
Cosmos 2491 28 May 06:13:15 06:18:33 17° 290° (WNW) 06:23:52 435.465 / 435.565
STRAND 1 28 May 06:14:18 06:17:07 15° 67° (ENE) 06:19:56 437.568
CUBESAT XI-V 28 May 06:19:49 06:23:53 30° 263° (W) 06:27:59 437.345
BRITE-PL 28 May 06:26:32 06:31:00 34° 96° (E) 06:35:08 437.365/2234.400
GOMX 1 28 May 06:48:55 06:52:33 24° 95° (E) 06:56:01 467.674
LilacSat-2 28 May 06:49:11 06:52:52 50° 99° (E) 06:56:34 437.200
CUTE-I 28 May 06:52:25 06:57:41 58° 101° (E) 07:02:58 437.470
JUGNU 28 May 07:11:44 07:16:50 29° 177° (S) 07:21:58 437.505
SRMSAT 28 May 07:18:40 07:22:44 19° 165° (SSE) 07:26:47 437.500
DOVE 4 28 May 07:34:33 07:38:27 34° 98° (E) 07:42:14 437.250
NOAA 15 28 May 07:39:58 07:44:34 31° 289° (WNW) 07:49:07 137.62
PRISM 28 May 07:43:33 07:46:28 19° 70° (ENE) 07:49:24 437.425
Cubesat XI-IV 28 May 07:46:29 07:51:27 40° 288° (WNW) 07:56:26 437.490
NOAA 18 28 May 07:49:39 07:54:28 32° 290° (WNW) 07:59:17 137.9125
CANX-2 28 May 07:50:16 07:52:44 15° 95° (E) 07:55:10 2200.000
STRAND 1 28 May 07:50:55 07:55:49 49° 260° (W) 08:00:45 437.568
CINEMA 3 28 May 08:01:32 08:04:23 18° 96° (E) 08:07:13 145.822/145.860
BRITE-PL 28 May 08:05:48 08:09:07 18° 292° (WNW) 08:12:16 437.365/2234.400
AUBIESAT-1 28 May 08:07:41 08:09:34 14° 101° (E) 08:11:29 437.475
M-CUBED/EXP-1 PRIME 28 May 08:14:12 08:16:51 23° 102° (ESE) 08:19:33 437.505
HO-68 28 May 08:15:27 08:21:59 37° 99° (E) 08:28:30 435.675
CUTE 1.7 + AOD 2 28 May 08:16:20 08:20:00 27° 97° (E) 08:23:39 437.475
PCSat 28 May 08:16:40 08:19:57 16° 104° (ESE) 08:23:15 145.827
GOMX 1 28 May 08:27:03 08:30:29 21° 290° (WNW) 08:33:45 467.674
CUTE-I 28 May 08:34:30 08:37:11 14° 294° (WNW) 08:39:53 437.470
COMPASS 1 28 May 08:35:57 08:39:18 23° 96° (E) 08:42:38 437.405
AAUSAT CUBESAT 2 28 May 08:38:12 08:41:09 19° 95° (E) 08:44:07 437.432
AIST 1 28 May 08:42:22 08:46:43 87° 265° (W) 08:50:59
Cosmos 2499 28 May 08:44:44 08:51:42 26° 75° (ENE) 08:58:44 435.465 / 435.565
CUBEBUG 2 28 May 08:46:49 08:49:42 18° 96° (E) 08:52:36 437.445
JUGNU 28 May 09:00:24 09:05:24 28° 187° (S) 09:10:24 437.505
SRMSAT 28 May 09:06:21 09:11:23 28° 175° (S) 09:16:25 437.500
UWE-3 28 May 09:13:29 09:17:01 26° 97° (E) 09:20:35 435.000/436.395/437.385
DOVE 4 28 May 09:13:39 09:15:47 14° 292° (WNW) 09:17:52 437.250
GONETS M04 28 May 09:15:16 09:23:56 70° 83° (E) 09:32:35
FUNcube-1 28 May 09:16:30 09:19:12 16° 95° (E) 09:21:56 145.935
PRISM 28 May 09:18:09 09:21:34 25° 263° (W) 09:25:00 437.425
SO-50 28 May 09:19:46 09:24:01 35° 57° (ENE) 09:28:08 436.795
CANX-2 28 May 09:24:45 09:28:36 33° 286° (WNW) 09:32:26 2200.000
SEEDS 28 May 09:25:51 09:29:59 53° 284° (WNW) 09:34:07 437.485
O/OREOS (USA 219) 28 May 09:29:09 09:33:42 72° 288° (WNW) 09:38:15 437.305
ANTELSAT 28 May 09:35:55 09:38:41 17° 70° (ENE) 09:41:25 437.575/2403.000
CINEMA 3 28 May 09:38:05 09:41:28 24° 288° (WNW) 09:44:51 145.822/145.860
AUBIESAT-1 28 May 09:41:36 09:44:00 19° 292° (WNW) 09:46:26 437.475
M-CUBED/EXP-1 PRIME 28 May 09:50:01 09:51:12 12° 294° (WNW) 09:52:25 437.505
CUTE 1.7 + AOD 2 28 May 09:52:39 09:55:35 18° 289° (WNW) 09:58:32 437.475
PCSat 28 May 09:57:39 10:02:52 48° 298° (WNW) 10:08:07 145.827
Oscar 11 28 May 09:58:03 10:02:24 71° 102° (ESE) 10:06:43 145.826/435.025
HO-68 28 May 10:03:15 10:09:30 34° 293° (WNW) 10:15:46 435.675
COMPASS 1 28 May 10:11:30 10:14:42 21° 288° (WNW) 10:17:53 437.405
AAUSAT CUBESAT 2 28 May 10:13:06 10:16:33 25° 288° (WNW) 10:20:00 437.432
ZACube-1 28 May 10:13:35 10:17:48 83° 282° (WNW) 10:22:06 437.345
HUMSAT D 28 May 10:16:38 10:19:44 20° 96° (E) 10:22:50 437.325/437.525
CUBEBUG 2 28 May 10:22:47 10:26:16 26° 287° (WNW) 10:29:47 437.445
UNISAT 6 28 May 10:29:27 10:33:52 79° 76° (ENE) 10:38:11 437.425
Cosmos 2499 28 May 10:36:36 10:45:04 57° 269° (W) 10:53:42 435.465 / 435.565
DELFI C3 28 May 10:36:38 10:40:40 84° 284° (WNW) 10:44:42 145.870
TIGRISAT 28 May 10:36:45 10:41:09 89° 258° (WSW) 10:45:29 435.000
BEESAT 3 28 May 10:46:30 10:50:16 49° 114° (ESE) 10:54:05 437.485
JUGNU 28 May 10:50:08 10:53:54 17° 196° (SSW) 10:57:40 437.505
UWE-3 28 May 10:50:20 10:53:16 19° 289° (WNW) 10:56:14 435.000/436.395/437.385
FUNcube-1 28 May 10:51:46 10:55:24 29° 287° (WNW) 10:59:06 145.935
SRMSAT 28 May 10:55:04 11:00:06 29° 185° (S) 11:05:07 437.500
CUSAT 1 28 May 11:00:18 11:05:31 32° 86° (E) 11:11:45 437.405
SO-50 28 May 11:01:08 11:04:09 18° 252° (WSW) 11:07:07 436.795
DUCHIFAT 1 28 May 11:02:30 11:05:57 25° 72° (ENE) 11:09:23 145.980
DANDE 28 May 11:05:28 11:06:58 11° 78° (ENE) 11:08:35 436.750
ANTELSAT 28 May 11:11:14 11:15:07 31° 262° (W) 11:18:58 437.575/2403.000
GONETS M04 28 May 11:14:24 11:19:48 18° 278° (W) 11:25:12
BUGSAT 1 28 May 11:18:16 11:20:59 17° 70° (ENE) 11:23:41 437.445
POPSAT HIP 1 28 May 11:40:39 11:44:53 87° 81° (E) 11:49:08 437.405
QB50P1 28 May 11:40:58 11:45:12 90° 107° (ESE) 11:49:28 145.935-145.965
QB50P2 28 May 11:43:33 11:47:49 79° 259° (W) 11:52:03 145.880/145.840
ESTCUBE 1 28 May 11:44:02 11:48:15 37° 99° (E) 11:52:26 437.505/2401.250
POLYITAN 1 28 May 11:46:02 11:50:17 77° 260° (W) 11:54:31 437.675
BEESAT 2 28 May 11:50:49 11:54:37 46° 300° (WNW) 11:58:28 435.950
HUMSAT D 28 May 11:51:54 11:55:14 23° 288° (WNW) 11:58:35 437.325/437.525
CUBEBUG 1 28 May 11:53:56 11:57:49 31° 98° (E) 12:01:40 437.445
DX 1 28 May 11:55:07 11:58:43 25° 97° (E) 12:02:18 434.975-435.025
NANOSAT C BR1 28 May 11:59:04 12:03:12 55° 260° (W) 12:07:21 145.865
VELOX 1 28 May 12:02:48 12:06:57 39° 99° (E) 12:11:03 145.980
SPROUT 28 May 12:17:45 12:20:58 21° 96° (E) 12:24:10 437.525
JAS-2 28 May 12:23:38 12:30:22 44° 70° (ENE) 12:37:37 435.910
Oscar 19 28 May 12:26:27 12:29:29 16° 67° (ENE) 12:32:32 437.125/150
BEESAT 3 28 May 12:27:13 12:28:13 11° 308° (NW) 12:29:13 437.485
AIST 2 28 May 12:30:11 12:33:08 19° 110° (ESE) 12:36:07 435.215
50 SAT 28 May 12:37:33 12:41:11 51° 284° (WNW) 12:44:47 437.505
DUCHIFAT 1 28 May 12:38:30 12:41:33 19° 264° (W) 12:44:35 145.980
AISAT 28 May 12:38:48 12:43:11 68° 284° (WNW) 12:47:32 437.250
CUSAT 1 28 May 12:41:57 12:47:24 34° 287° (WNW) 12:54:01 437.405
UKube-1 28 May 12:42:13 12:46:32 81° 101° (E) 12:50:50 .
DANDE 28 May 12:43:23 12:48:22 69° 280° (W) 12:55:04 436.750
SRMSAT 28 May 12:44:42 12:48:45 19° 194° (SSW) 12:52:47 437.500
BUGSAT 1 28 May 12:52:26 12:56:06 29° 262° (W) 12:59:45 437.445
Gurwin Techsat 1B 28 May 12:56:52 12:58:57 12° 65° (ENE) 13:01:03 435.225
ESTCUBE 1 28 May 13:22:02 13:24:41 15° 291° (WNW) 13:27:20 437.505/2401.250
CUBEBUG 1 28 May 13:31:04 13:33:48 17° 291° (WNW) 13:36:31 437.445
DX 1 28 May 13:31:31 13:34:43 20° 290° (WNW) 13:37:54 434.975-435.025
VELOX 1 28 May 13:40:46 13:43:01 14° 292° (WNW) 13:45:16 145.980
SWISSCUBE 28 May 13:47:26 13:48:10 10° 93° (E) 13:48:55 437.505
SPROUT 28 May 13:53:26 13:56:47 23° 288° (WNW) 14:00:08 437.525
ITUPSAT 1 28 May 13:53:39 13:54:50 11° 93° (E) 13:56:00 437.325
Oscar 19 28 May 14:03:20 14:08:20 48° 260° (W) 14:13:22 437.125/150
AIST 2 28 May 14:07:56 14:11:25 26° 303° (WNW) 14:14:54 435.215
JAS-2 28 May 14:09:16 14:15:22 30° 265° (W) 14:21:58 435.910
TISAT 1 28 May 14:13:37 14:17:40 53° 285° (WNW) 14:21:43 437.305
BEESAT 28 May 14:14:25 14:18:00 21° 96° (E) 14:21:34 436.000
YUBILEINY 28 May 14:30:18 14:31:32 10° 78° (ENE) 14:32:46 435.215
Cosmos 2491 28 May 14:30:43 14:38:03 29° 75° (ENE) 14:45:16 435.465 / 435.565
Gurwin Techsat 1B 28 May 14:33:02 14:38:16 64° 258° (WSW) 14:43:33 435.225
AO-7 28 May 14:34:54 14:41:34 28° 62° (ENE) 14:48:14 29.400- 29.500
AO-85 28 May 14:46:32 14:50:22 27° 55° (NE) 14:53:55 145.980
ITAMSAT 1 28 May 14:46:45 14:51:50 63° 75° (ENE) 14:56:57 435.822/435.867
SWISSCUBE 28 May 15:21:31 15:26:13 58° 285° (WNW) 15:30:55 437.505
ITUPSAT 1 28 May 15:28:11 15:32:54 56° 285° (WNW) 15:37:35 437.325
BEESAT 28 May 15:51:35 15:55:43 30° 289° (WNW) 15:59:52 436.000
RS-15 28 May 16:03:08 16:13:00 38° 106° (ESE) 16:23:18 29.354- 29.394
YUBILEINY 28 May 16:18:11 16:26:52 81° 94° (E) 16:35:34 435.215
AO-7 28 May 16:25:46 16:33:48 54° 257° (WSW) 16:41:54 29.400- 29.500
Cosmos 2491 28 May 16:26:45 16:34:59 48° 271° (W) 16:43:12 435.465 / 435.565
AO-85 28 May 16:27:24 16:30:34 20° 252° (WSW) 16:33:33 145.980
ITAMSAT 1 28 May 16:30:25 16:31:36 11° 267° (W) 16:32:48 435.822/435.867
KKS-1 28 May 16:30:41 16:35:07 82° 104° (ESE) 16:39:31 437.445
Cosmos 2504 28 May 16:44:22 16:50:07 27° 86° (E) 16:56:03 435.465 / 435.565
HORYU 2 28 May 16:49:27 16:53:51 71° 75° (ENE) 16:58:14 437.375
MOZHAYETS 4 28 May 16:53:13 16:57:51 74° 283° (WNW) 17:02:28
STARS 28 May 17:03:39 17:08:02 83° 281° (W) 17:12:22 437.465
NOAA 15 28 May 17:15:19 17:19:24 23° 69° (ENE) 17:23:30 137.62
Cubesat XI-IV 28 May 17:24:29 17:28:03 19° 67° (ENE) 17:31:37 437.490
LilacSat-2 28 May 17:27:56 17:29:12 11° 70° (ENE) 17:30:29 437.200
NOAA 18 28 May 17:30:14 17:34:48 28° 69° (ENE) 17:39:22 137.9125
BRITE-PL 28 May 17:30:34 17:35:09 26° 70° (ENE) 17:39:47 437.365/2234.400
GOMX 1 28 May 17:50:52 17:54:35 19° 69° (ENE) 17:58:18 467.674
CUTE-I 28 May 18:08:33 18:13:41 53° 74° (ENE) 18:18:51 437.470
YUBILEINY 28 May 18:19:40 18:24:30 16° 290° (WNW) 18:29:22 435.215
CUBESAT XI-V 28 May 18:21:25 18:26:07 77° 283° (WNW) 18:30:46 437.345
